Teesside, United Kingdom

5:11 AM GMT on December 18, 2017 (GMT +0000)
Teesside

Weather History for EGNV - November, 2012

Change the Weather History Date:

Tuesday, November 27, 2012

  Actual Average Record
Temperature  
Mean Temperature 44 °F -  
Max Temperature 46 °F 44 °F 57 °F (2006)
Min Temperature 41 °F 33 °F 26 °F (2010)
Degree Days  
Heating Degree Days 21    
Moisture  
Dew Point 40 °F    
Average Humidity 83    
Maximum Humidity 87    
Minimum Humidity 76    
Precipitation  
Precipitation 0.00 in - - ()
Sea Level Pressure  
Sea Level Pressure 29.86 in    
Wind  
Wind Speed 16 mph ()    
Max Wind Speed 21 mph    
Max Gust Speed 32 mph    
Visibility 5.7 miles    
Events Rain    
Averages and records for this station are not official NWS values.
T = Trace of Precipitation, MM = Missing Value Source: Averaged Metar Reports

Daily Weather History Graph

Daily Weather History Graph

Search for Another Location

Airport or City:

Trip Planner

Search our weather history database for the weather conditions in past years. The results will help you decide how hot, cold, wet, or windy it might be!

Date:

Astronomy

Nov. 27, 2012 Rise Set
Actual Time 7:58 AM GMT 3:48 PM GMT
Civil Twilight 7:15 AM GMT 4:30 PM GMT
Nautical Twilight 6:30 AM GMT 5:16 PM GMT
Astronomical Twilight 5:47 AM GMT 5:59 PM GMT
Moon 3:13 PM GMT (11/27) 6:44 AM GMT (11/27)
Length of Visible Light 9h 15m
Length of Day
7h 50m
Waxing Gibbous, 99% of the Moon is Illuminated
Nov 27
Waxing Gibbous
Nov 28
Full
Dec 6
Last Quarter
Dec 13
New
Dec 20
First Quarter

Hourly Weather History & Observations

Time (GMT) Temp. Windchill Dew Point Humidity Pressure Visibility Wind Dir Wind Speed Gust Speed Precip Events Conditions
5:50 AM 44.6 °F 36.4 °F 41.0 °F 87% 29.71 in 6.2 mi NNE 20.7 mph - N/A   Overcast
6:20 AM 44.6 °F 37.4 °F 41.0 °F 87% 29.74 in 6.2 mi NNE 16.1 mph - N/A Rain Light Rain
6:50 AM 44.6 °F 36.9 °F 41.0 °F 87% 29.74 in 6.2 mi NNE 18.4 mph 29.9 mph N/A Rain Light Rain
7:20 AM 44.6 °F 37.4 °F 41.0 °F 87% 29.77 in 2.5 mi North 16.1 mph 27.6 mph N/A Rain Rain
7:50 AM 44.6 °F 36.9 °F 41.0 °F 87% 29.77 in 5.6 mi NNE 18.4 mph - N/A   Mostly Cloudy
8:20 AM 44.6 °F 36.6 °F 41.0 °F 87% 29.77 in 5.6 mi NNE 19.6 mph - N/A Rain Light Rain
8:50 AM 44.6 °F 36.6 °F 41.0 °F 87% 29.80 in 6.2 mi NNE 19.6 mph - N/A Rain Light Rain
9:20 AM 44.6 °F 37.2 °F 39.2 °F 81% 29.80 in 6.2 mi North 17.3 mph - N/A Rain Light Rain
9:50 AM 46.4 °F 39.8 °F 39.2 °F 76% 29.83 in 6.2 mi NNE 16.1 mph - N/A   Scattered Clouds
10:20 AM 44.6 °F 36.9 °F 41.0 °F 87% 29.83 in 6.2 mi NNE 18.4 mph - N/A   Scattered Clouds
10:50 AM 44.6 °F 38.1 °F 39.2 °F 81% 29.83 in 6.2 mi NNE 13.8 mph - N/A   Scattered Clouds
11:20 AM 44.6 °F 38.4 °F 39.2 °F 81% 29.86 in 6.2 mi North 12.7 mph - N/A Rain Light Rain Showers
11:50 AM 44.6 °F 37.8 °F 39.2 °F 81% 29.86 in 6.2 mi North 15.0 mph - N/A   Scattered Clouds
12:20 PM 46.4 °F 39.5 °F 39.2 °F 76% 29.86 in 6.2 mi NNE 17.3 mph - N/A   Scattered Clouds
12:50 PM 46.4 °F 39.2 °F 39.2 °F 76% 29.86 in 6.2 mi North 18.4 mph - N/A   Scattered Clouds
1:20 PM 46.4 °F 39.2 °F 39.2 °F 76% 29.86 in 6.2 mi North 18.4 mph - N/A   Partly Cloudy
1:50 PM 46.4 °F 39.0 °F 39.2 °F 76% 29.86 in 6.2 mi North 19.6 mph - N/A   Partly Cloudy
2:20 PM 46.4 °F 39.2 °F 41.0 °F 81% 29.86 in 6.2 mi North 18.4 mph - N/A   Partly Cloudy
2:50 PM 46.4 °F 39.5 °F 39.2 °F 76% 29.86 in 5.0 mi North 17.3 mph - N/A   Partly Cloudy
3:20 PM 46.4 °F 40.4 °F 39.2 °F 76% 29.86 in 4.3 mi North 13.8 mph - N/A Rain Light Rain Showers
3:50 PM 44.6 °F 37.4 °F 39.2 °F 81% 29.89 in 6.2 mi North 16.1 mph - N/A   Scattered Clouds
4:20 PM 44.6 °F 37.2 °F 39.2 °F 81% 29.89 in 6.2 mi North 17.3 mph - N/A   Scattered Clouds
4:50 PM 44.6 °F 37.4 °F 39.2 °F 81% 29.89 in 6.2 mi North 16.1 mph - N/A   Scattered Clouds
5:20 PM 42.8 °F 35.1 °F 39.2 °F 87% 29.92 in 4.3 mi North 16.1 mph - N/A Rain Light Rain
5:50 PM 42.8 °F 35.4 °F 39.2 °F 87% 29.92 in 4.3 mi NNW 15.0 mph - N/A Rain Light Rain
6:20 PM 42.8 °F 34.8 °F 39.2 °F 87% 29.92 in 6.2 mi NNW 17.3 mph - N/A Rain Light Rain
6:50 PM 42.8 °F 35.8 °F 39.2 °F 87% 29.92 in 5.0 mi NNW 13.8 mph - N/A Rain Light Rain
7:20 PM 42.8 °F 35.8 °F 39.2 °F 87% 29.95 in 5.0 mi NNW 13.8 mph - N/A Rain Light Rain
7:50 PM 42.8 °F 35.8 °F 39.2 °F 87% 29.95 in 5.0 mi NNW 13.8 mph - N/A Rain Light Rain
8:20 PM 42.8 °F 36.2 °F 39.2 °F 87% 29.95 in 5.0 mi North 12.7 mph - N/A Rain Light Rain
8:50 PM 42.8 °F 35.1 °F 39.2 °F 87% 29.95 in 5.6 mi NNW 16.1 mph - N/A Rain Light Rain
9:20 PM 42.8 °F 34.0 °F 39.2 °F 87% 29.95 in 6.2 mi NNW 20.7 mph 32.2 mph N/A Rain Light Rain
9:50 PM 41.0 °F 32.2 °F 37.4 °F 87% 29.95 in 6.2 mi NNW 18.4 mph - N/A   Scattered Clouds